Location: *
(33.8649°S, 62.1526°E)
Time: 12:05:39
(UTC+00:00)

Cosmos 1300 Rocket - Pass Details

Date: 17 January 2021
Orbit: 601 x 627 km, 82.5° (Epoch: 02 March)

Event Time Altitude Azimuth Distance (km) Brightness Sun altitude
Rises 23:33:40 0° 197° (SSW) 2,898 7.3 -15.8°
Reaches altitude 10° 23:36:01 10° 205° (SSW) 1,989 6.3 -15.4°
Maximum altitude 23:40:04 37° 271° (W) 965 4.1 -14.8°
Enters shadow 23:42:14 23° 323° (NW) 1,338 4.7 -14.4°
